XIAOXIANG 3 (43944 NORAD) Tracking and Keplerian Element Data

This shows tracking and keplerian element data for the satellite.

Feedback or suggestion? Click here.




ElementValue
Catalog43944
NameXIAOXIANG 3
Epoch Orbit449
Epoch Day51.09140311
Epoch Year2019
RAAN149.6779
Inclination97.5093
Eccentricity0.0013039
Argument of Perigee177.4755
Mean Anonmoly304.278
Mean Motion15.11648327
Decay Rate9.54E-06
L11 43944U 19005C 19051.09140311 .00000954 00000-0 59812-4 0 9991
L22 43944 97.5093 149.6779 0013039 177.4755 304.2780 15.11648327 4493

Live tracking and technical data element details for XIAOXIANG 3 (NORAD 43944). XIAOXIANG 3 can be tracked NOW for your location showing map with azimuth and elevation plus other details from your city location.

Track the satellite on the map from your city or location and see movement details for azimuth, elevation, latitude, longitude, range, height, and movement on the map or in text.







IsCatalogInMostPopularTable: catalog: 43944, numindb: 16
Update: records affected: 1



GetName: 43944 XIAOXIANG 3

Hit Count: updated at: Thu, 21 Feb 2019 12:27:54 GMT